Date String (YYYY-MM-DD hh:mm:ss) UTC,Instrument flags,Ambient pressure (hPa),Sample flow (lpm),Bypass flow (lpm),Sample temperature (°C),Ambient temperature (°C),ASC tube jacket temperature (°C),LED temperature (°C),Box temperature (°C),Sample RH (%),Span deviation,Mass concentration (μg/m³),Mass concentration (μg/m³),Mass concentration (μg/m³)
DateTimeUTC,F1_M11,P_M11,Q1_M11,Q2_M11,T1_M11,T2_M11,T3_M11,T4_M11,T5_M11,U1_M11,ZSPAN_M11,X0_M11,X2_M11,X1_M11
2022-10-13 19:00:00,,0830.1,5.00,0.00,29.5,28.5,00.0,38.2,31.4,12.9,0000.0,0010.95,0005.96,0005.31
2022-10-13 19:01:00,,0830.2,4.98,0.00,29.5,28.5,00.0,38.2,31.4,12.9,0000.0,0011.51,0005.97,0005.28
2022-10-13 19:02:00,,0830.1,5.00,0.00,29.6,28.5,00.0,38.2,31.5,13.0,0000.0,0011.65,0005.93,0005.26
2022-10-13 19:03:00,,0830.1,5.00,0.00,29.6,28.5,00.0,38.2,31.5,13.0,0000.0,0011.45,0005.89,0005.25
2022-10-13 19:04:00,,0830.1,5.00,0.00,29.6,28.5,00.0,38.3,31.5,12.8,0000.0,0011.31,0005.79,0005.23
2022-10-13 19:05:00,,0830.1,5.00,0.00,29.6,28.5,00.0,38.3,31.5,13.1,0000.0,0011.59,0005.75,0005.21
2022-10-13 19:06:00,,0830.1,5.00,0.00,29.6,28.5,00.0,38.3,31.6,13.0,0000.0,0012.95,0005.81,0005.23
2022-10-13 19:07:00,,0830.1,4.99,0.00,29.7,28.5,00.0,38.3,31.6,12.8,0000.0,0013.24,0005.83,0005.24
2022-10-13 19:08:00,,0830.2,5.00,0.00,29.7,28.6,00.0,38.3,31.6,12.8,0000.0,0013.39,0005.84,0005.25
2022-10-13 19:09:00,,0830.1,5.00,0.00,29.7,28.6,00.0,38.4,31.6,12.8,0000.0,0013.25,0005.87,0005.27
2022-10-13 19:10:00,,0830.1,5.00,0.00,29.7,28.6,00.0,38.4,31.6,12.9,0000.0,0013.23,0005.89,0005.29
2022-10-13 19:11:00,,0830.1,5.00,0.00,29.7,28.6,00.0,38.4,31.6,12.9,0000.0,0013.42,0005.87,0005.29
2022-10-13 19:12:00,,0830.1,5.00,0.00,29.7,28.6,00.0,38.4,31.7,12.8,0000.0,0014.08,0005.86,0005.30
2022-10-13 19:13:00,,0830.1,5.00,0.00,29.8,28.7,00.0,38.4,31.7,12.9,0000.0,0014.64,0005.88,0005.31
2022-10-13 19:14:00,,0830.0,5.00,0.00,29.8,28.7,00.0,38.4,31.7,12.9,0000.0,0014.85,0005.90,0005.34
2022-10-13 19:15:00,,0829.9,5.00,0.00,29.8,28.7,00.0,38.5,31.7,12.8,0000.0,0014.43,0005.92,0005.35
2022-10-13 19:16:00,,0829.9,4.98,0.00,29.8,28.7,00.0,38.5,31.7,12.9,0000.0,0013.97,0005.90,0005.36
2022-10-13 19:17:00,,0829.9,5.00,0.00,29.8,28.8,00.0,38.5,31.7,12.9,0000.0,0012.79,0005.87,0005.36
2022-10-13 19:18:00,,0829.9,5.00,0.00,29.9,28.8,00.0,38.5,31.7,12.7,0000.0,0012.85,0005.87,0005.37
2022-10-13 19:19:00,,0829.9,5.00,0.00,29.9,28.8,00.0,38.5,31.8,12.7,0000.0,0012.86,0005.89,0005.39
2022-10-13 19:20:00,,0829.9,5.00,0.00,29.9,28.8,00.0,38.6,31.8,12.6,0000.0,0012.87,0005.86,0005.39
2022-10-13 19:21:00,,0829.8,5.00,0.00,29.9,28.8,00.0,38.6,31.8,12.7,0000.0,0013.25,0005.85,0005.39
2022-10-13 19:22:00,,0829.8,5.00,0.00,29.9,28.8,00.0,38.6,31.9,12.7,0000.0,0013.53,0005.88,0005.41
2022-10-13 19:23:00,,0829.8,5.00,0.00,29.9,28.8,00.0,38.6,31.9,12.6,0000.0,0012.56,0005.90,0005.41
2022-10-13 19:24:00,,0829.8,5.00,0.00,29.9,28.9,00.0,38.6,31.9,12.6,0000.0,0012.00,0005.89,0005.42
2022-10-13 19:25:00,,0829.8,5.00,0.00,30.0,28.9,00.0,38.6,31.9,12.6,0000.0,0012.73,0005.90,0005.41
2022-10-13 19:26:00,,0829.7,4.99,0.00,30.0,28.9,00.0,38.7,31.9,12.7,0000.0,0012.42,0005.89,0005.41
2022-10-13 19:27:00,,0829.7,4.99,0.00,30.0,28.9,00.0,38.7,32.0,12.7,0000.0,0013.11,0005.94,0005.41
2022-10-13 19:28:00,,0829.6,5.00,0.00,30.0,28.9,00.0,38.7,31.9,12.6,0000.0,0013.13,0005.95,0005.41
2022-10-13 19:29:00,,0829.6,5.00,0.00,30.1,29.0,00.0,38.7,32.0,12.5,0000.0,0012.66,0005.96,0005.41
2022-10-13 19:30:00,,0829.8,5.00,0.00,30.1,29.0,00.0,38.7,32.0,12.6,0000.0,0012.06,0005.93,0005.41
2022-10-13 19:31:00,,0829.7,5.00,0.00,30.1,29.0,00.0,38.8,32.0,12.7,0000.0,0012.01,0005.93,0005.40
2022-10-13 19:32:00,,0829.6,5.01,0.00,30.1,29.0,00.0,38.8,32.0,12.7,0000.0,0012.32,0005.96,0005.39
2022-10-13 19:33:00,,0829.5,5.00,0.00,30.1,29.1,00.0,38.8,32.0,12.9,0000.0,0012.54,0005.97,0005.38
2022-10-13 19:34:00,,0829.6,4.98,0.00,30.2,29.1,00.0,38.8,32.1,12.8,0000.0,0012.55,0005.96,0005.37
2022-10-13 19:35:00,,0829.5,5.00,0.00,30.2,29.1,00.0,38.8,32.1,12.8,0000.0,0012.78,0005.96,0005.36
2022-10-13 19:36:00,,0829.6,5.00,0.00,30.2,29.1,00.0,38.9,32.1,12.4,0000.0,0012.57,0005.98,0005.36
2022-10-13 19:37:00,,0829.6,5.00,0.00,30.2,29.2,00.0,38.9,32.1,12.6,0000.0,0012.46,0006.01,0005.37
2022-10-13 19:38:00,,0829.5,5.00,0.00,30.2,29.2,00.0,38.9,32.1,12.8,0000.0,0011.86,0006.03,0005.37
2022-10-13 19:39:00,,0829.5,5.01,0.00,30.2,29.2,00.0,38.9,32.2,12.7,0000.0,0011.98,0006.01,0005.36
2022-10-13 19:40:00,,0829.5,5.01,0.00,30.3,29.2,00.0,38.9,32.2,12.4,0000.0,0012.05,0006.01,0005.36
2022-10-13 19:41:00,,0829.5,5.00,0.00,30.3,29.2,00.0,39.0,32.2,12.3,0000.0,0012.77,0006.00,0005.36
2022-10-13 19:42:00,,0829.5,5.00,0.00,30.3,29.1,00.0,39.0,32.2,12.3,0000.0,0012.85,0006.00,0005.38
2022-10-13 19:43:00,,0829.5,5.00,0.00,30.3,29.1,00.0,39.0,32.2,12.3,0000.0,0012.46,0005.98,0005.38
2022-10-13 19:44:00,,0829.4,5.02,0.00,30.3,29.1,00.0,39.0,32.2,12.3,0000.0,0011.61,0005.97,0005.38
2022-10-13 19:45:00,,0829.3,5.00,0.00,30.3,29.1,00.0,39.0,32.2,12.2,0000.0,0011.58,0005.96,0005.39
2022-10-13 19:46:00,,0829.3,5.00,0.00,30.3,29.1,00.0,39.0,32.2,12.3,0000.0,0011.07,0005.96,0005.40
2022-10-13 19:47:00,,0829.3,5.00,0.00,30.3,29.2,00.0,39.1,32.2,12.2,0000.0,0010.39,0005.95,0005.40
2022-10-13 19:48:00,,0829.4,5.00,0.00,30.3,29.2,00.0,39.1,32.2,12.5,0000.0,0010.65,0005.94,0005.41
2022-10-13 19:49:00,,0829.3,5.00,0.00,30.3,29.2,00.0,39.1,32.2,12.7,0000.0,0011.11,0005.95,0005.42
2022-10-13 19:50:00,,0829.3,5.00,0.00,30.4,29.2,00.0,39.1,32.2,12.5,0000.0,0010.95,0005.95,0005.42
2022-10-13 19:51:00,,0829.3,5.00,0.00,30.4,29.2,00.0,39.1,32.2,12.5,0000.0,0010.99,0005.96,0005.44
2022-10-13 19:52:00,,0829.2,4.99,0.00,30.4,29.2,00.0,39.1,32.3,12.4,0000.0,0010.45,0006.00,0005.46
2022-10-13 19:53:00,,0829.2,4.99,0.00,30.4,29.2,00.0,39.1,32.3,12.3,0000.0,0010.63,0006.04,0005.46
2022-10-13 19:54:00,,0829.2,5.02,0.00,30.4,29.2,00.0,39.1,32.3,12.4,0000.0,0010.89,0006.09,0005.48
2022-10-13 19:55:00,,0829.2,5.00,0.00,30.4,29.2,00.0,39.2,32.3,12.5,0000.0,0010.78,0006.08,0005.49
2022-10-13 19:56:00,,0829.2,5.00,0.00,30.4,29.3,00.0,39.2,32.3,12.4,0000.0,0010.79,0006.12,0005.50
2022-10-13 19:57:00,,0829.2,4.99,0.00,30.4,29.3,00.0,39.2,32.3,12.3,0000.0,0011.38,0006.17,0005.51
2022-10-13 19:58:00,,0829.3,5.00,0.00,30.5,29.3,00.0,39.2,32.3,12.3,0000.0,0011.80,0006.22,0005.53
2022-10-13 19:59:00,,0829.3,5.00,0.00,30.5,29.3,00.0,39.2,32.3,12.3,0000.9,0011.65,0006.25,0005.54
